Starlink 31863

operational
NORAD ID: 59789 Int'l Des: 2024-093 Owner: SPXS Country: US Constellation: starlink
LEOCIRCULAR

About Starlink 31863

Description loading...

Live Position

Loading 3D Globe...

Upcoming Passes

Altitude History

Altitude vs Time

uPlot chart will show altitude changes over time

Two-Line Element Set

1 59789U 24093H 25259.00938779 .00001842 00000-0 76420-4 0 9990
2 59789 43.0040 115.1121 0001275 275.3502 84.7205 15.27585399 75981
Epoch: Sep 16, 2025 • Age: 56 hours

Current Status

Altitude 483.4 km
Velocity 7.63 km/s
Sub-Earth Point -2.53°S, 167.96°E
Launch Date May 18, 2024
Age 1.3 years
Type internet

Technical Details

Classification Payload
Mass 730.00 kg
Dry Mass 700.00 kg
Total Mass 730.00 kg
Length 0.30 m
Diameter 4.10 m
Span 29.00 m
Shape Box + pan
Manufacturer SPXS
Bus Type Starlink V2M
Phase Status In Orbit
Owner/State SPXS/US

Large Constellations

Loading constellations...